Location: Unspecified
(0.0000°N, 0.0000°E)
Time: 05:07:21
(UTC+00:00)

Tiros 1 - Pass Details

Date: 04 October 2020
Orbit: 630 x 663 km, 48.4° (Epoch: 28 October)

Event Time Altitude Azimuth Distance (km) Brightness Sun altitude
Rises 21:03:57 0° 322° (NW) 2,978 - -48.6°
Reaches altitude 10° 21:06:17 10° 322° (NW) 2,069 - -49.2°
Maximum altitude 21:11:05 87° 51° (NE) 664 - -50.4°
Drops below altitude 10° 21:15:52 10° 140° (SE) 2,069 - -51.6°
Sets 21:18:13 0° 141° (SE) 2,979 - -52.2°
